TimeEDT,TemperatureF,Dew PointF,Humidity,Sea Level PressureIn,VisibilityMPH,Wind Direction,Wind SpeedMPH,Gust SpeedMPH,PrecipitationIn,Events,Conditions,WindDirDegrees,DateUTC
12:53 AM,54.0,43.0,66,30.03,10.0,East,6.9,-,N/A,,Clear,80,2013-05-05 04:53:00
1:53 AM,55.9,42.1,60,30.02,10.0,ENE,5.8,-,N/A,,Scattered Clouds,70,2013-05-05 05:53:00
2:53 AM,52.0,42.1,69,30.01,10.0,ENE,5.8,-,N/A,,Partly Cloudy,70,2013-05-05 06:53:00
3:53 AM,51.1,41.0,68,30.00,10.0,ENE,3.5,-,N/A,,Clear,70,2013-05-05 07:53:00
4:53 AM,50.0,41.0,71,30.00,10.0,East,5.8,-,N/A,,Clear,80,2013-05-05 08:53:00
5:53 AM,48.9,41.0,74,30.00,10.0,East,5.8,-,N/A,,Clear,80,2013-05-05 09:53:00
6:53 AM,48.0,41.0,77,30.01,10.0,ENE,5.8,-,N/A,,Clear,70,2013-05-05 10:53:00
7:53 AM,53.1,44.1,71,30.02,10.0,East,4.6,-,N/A,,Clear,90,2013-05-05 11:53:00
8:53 AM,59.0,46.0,62,30.02,10.0,East,9.2,-,N/A,,Clear,100,2013-05-05 12:53:00
9:53 AM,61.0,46.0,58,30.03,10.0,East,10.4,-,N/A,,Clear,90,2013-05-05 13:53:00
10:53 AM,64.9,46.9,52,30.03,10.0,East,12.7,-,N/A,,Clear,80,2013-05-05 14:53:00
11:53 AM,68.0,48.0,49,30.03,10.0,East,10.4,-,N/A,,Clear,90,2013-05-05 15:53:00
12:53 PM,68.0,48.9,50,30.01,10.0,East,13.8,-,N/A,,Clear,90,2013-05-05 16:53:00
2:53 PM,71.1,48.0,44,30.00,10.0,East,17.3,21.9,N/A,,Clear,90,2013-05-05 18:53:00
3:53 PM,70.0,45.0,41,29.99,10.0,East,13.8,-,N/A,,Clear,80,2013-05-05 19:53:00
4:53 PM,70.0,45.0,41,29.99,10.0,ESE,12.7,-,N/A,,Clear,110,2013-05-05 20:53:00
5:53 PM,70.0,46.0,42,29.98,10.0,ESE,8.1,-,N/A,,Clear,110,2013-05-05 21:53:00
6:53 PM,69.1,46.0,44,29.98,10.0,ESE,9.2,-,N/A,,Scattered Clouds,110,2013-05-05 22:53:00
7:53 PM,66.0,44.1,45,29.99,10.0,East,11.5,-,N/A,,Mostly Cloudy,90,2013-05-05 23:53:00
8:53 PM,64.9,43.0,45,29.99,10.0,East,8.1,-,N/A,,Overcast,90,2013-05-06 00:53:00
9:53 PM,61.0,43.0,52,30.01,10.0,ENE,5.8,-,0.00,Rain,Light Rain,70,2013-05-06 01:53:00
10:53 PM,61.0,43.0,52,30.01,10.0,ENE,4.6,-,0.00,,Overcast,60,2013-05-06 02:53:00
11:53 PM,60.1,41.0,49,30.00,10.0,ENE,5.8,-,N/A,,Overcast,70,2013-05-06 03:53:00